Location: eljas
(40.1958°N, 6.8661°W)
Time: 23:08:22
(UTC+02:00)

Amateur Radio Satellites - All Passes

Search period start: 25 October 2014 22:38
Search period end: 26 October 2014 21:38
Location: eljas, 40.1958°N, 6.8661°W

Satellite Date Start Highest point End Downlink Frequencies (MHz)
Time Altitude Azimuth
STRAND 1 25 Oct 22:42:27 22:46:07 20° 296° (WNW) 22:49:46 ?
RS-15 25 Oct 22:48:29 22:58:10 37° 107° (ESE) 23:07:44 29.354 - 29.394 USB, Beacon 29.352 USB
KITSAT 1 25 Oct 23:07:25 23:15:33 88° 61° (ENE) 23:23:37 435.175 FM
ZACube-1 25 Oct 23:09:02 23:12:50 26° 69° (ENE) 23:16:35 437.345 MHz
UKube-1 25 Oct 23:12:08 23:16:28 74° 75° (ENE) 23:20:50 145.840 MHz, 145.915 MHz
FUNcube-1 25 Oct 23:52:40 23:57:14 76° 76° (ENE) 00:01:46 145.950 - 145.970 MHz USB
UOSAT-12 25 Oct 23:52:55 23:56:28 21° 44° (NE) 23:59:59 437.025 FM, 437.400 FM
Oscar 11 25 Oct 23:53:18 23:57:26 43° 261° (W) 00:01:34 145.825 FM, Beacon 2401.500 USB
MaSat-1 26 Oct 00:01:37 00:01:52 10° 104° (ESE) 00:02:08 437.345 MHz
HO-68 26 Oct 00:06:41 00:11:54 22° 268° (W) 00:17:11 435.675 MHz FM
SO-50 26 Oct 00:13:23 00:17:45 34° 246° (WSW) 00:22:07 436.795 FM
ZACube-1 26 Oct 00:45:05 00:49:06 30° 264° (W) 00:53:05 437.345 MHz
RS-15 26 Oct 00:59:04 01:09:54 62° 308° (NW) 01:20:46 29.354 - 29.394 USB, Beacon 29.352 USB
KITSAT 1 26 Oct 01:04:51 01:09:51 18° 259° (WSW) 01:14:51 435.175 FM
UOSAT-12 26 Oct 01:32:21 01:36:58 55° 242° (WSW) 01:41:28 437.025 FM, 437.400 FM
MaSat-1 26 Oct 01:33:00 01:37:06 63° 296° (WNW) 01:40:49 437.345 MHz
JAS-1B 26 Oct 02:37:49 02:41:51 16° 92° (E) 02:46:12 435.800 - 435.900 CW/SSB
RS-15 26 Oct 02:16:56 02:25:08 23° 338° (NNW) 02:33:26 29.354 - 29.394 USB, Beacon 29.352 USB
Oscar 19 26 Oct 02:22:29 02:27:00 31° 96° (E) 02:31:29 437.125 CW, 437.150 USB
AO-27 26 Oct 02:43:15 02:47:02 20° 93° (E) 02:50:47 436.795 MHz FM
AO-Echo 26 Oct 02:55:26 03:00:18 35° 97° (E) 03:05:07 ?
Oscar 16 26 Oct 03:08:00 03:13:09 87° 104° (ESE) 03:18:16 437.025 USB, Beacon 2401.1428
Sapphire 26 Oct 03:11:31 03:14:47 16° 104° (ESE) 03:18:03 437.095 MHz 1200 baud AX-25 AFSK
JAS-1B 26 Oct 03:26:05 03:32:52 88° 285° (WNW) 03:41:02 435.800 - 435.900 CW/SSB
Uribyol 2 26 Oct 03:29:25 03:34:34 58° 101° (E) 03:39:39 436.500 FM
PCSat 26 Oct 03:32:25 03:36:57 28° 108° (ESE) 03:41:31 145.825 MHz
ITAMSAT 1 26 Oct 03:35:41 03:40:53 62° 101° (ESE) 03:46:01 435.822 SSB
Gurwin Techsat 1B 26 Oct 04:01:29 04:06:45 58° 101° (E) 04:11:57 435.225 FM
Oscar 19 26 Oct 04:01:50 04:06:16 31° 292° (WNW) 04:10:42 437.125 CW, 437.150 USB
TMSAT-1 26 Oct 04:12:04 04:17:17 54° 100° (E) 04:22:26 436.925 FM
AO-27 26 Oct 04:21:46 04:26:47 49° 289° (WNW) 04:31:47 436.795 MHz FM
AO-Echo 26 Oct 04:34:22 04:38:54 29° 293° (WNW) 04:43:26 ?
RS-15 26 Oct 04:35:25 04:43:08 21° 15° (NNE) 04:50:59 29.354 - 29.394 USB, Beacon 29.352 USB
Uosat F 26 Oct 04:42:57 04:45:31 14° 91° (E) 04:48:04 435.120 FM
Oscar 16 26 Oct 04:49:54 04:51:45 12° 301° (WNW) 04:53:35 437.025 USB, Beacon 2401.1428
Sapphire 26 Oct 04:52:14 04:57:36 66° 301° (WNW) 05:03:01 437.095 MHz 1200 baud AX-25 AFSK
Uribyol 2 26 Oct 05:10:06 05:13:33 18° 298° (WNW) 05:16:59 436.500 FM
PCSat 26 Oct 05:15:06 05:20:10 40° 306° (NW) 05:25:17 145.825 MHz
ITAMSAT 1 26 Oct 05:16:33 05:19:50 17° 298° (WNW) 05:23:06 435.822 SSB
JAS-1B 26 Oct 05:18:56 05:22:52 16° 300° (WNW) 05:27:08 435.800 - 435.900 CW/SSB
AO-7 26 Oct 05:28:03 05:36:10 54° 102° (ESE) 05:44:15 29.400 - 29.500 MHz
OPAL 26 Oct 05:31:17 05:36:22 64° 71° (ENE) 05:41:25 ?
JAS-2 26 Oct 05:42:39 05:48:38 24° 90° (E) 05:54:33 435.800 - 435.900 CW/SSB, 435.910 FM
Gurwin Techsat 1B 26 Oct 05:42:39 05:46:13 19° 297° (WNW) 05:49:48 435.225 FM
TMSAT-1 26 Oct 05:53:01 05:56:46 20° 297° (WNW) 06:00:30 436.925 FM
Uosat F 26 Oct 06:19:43 06:24:44 65° 287° (WNW) 06:29:43 435.120 FM
Sapphire 26 Oct 06:39:58 06:42:06 12° 321° (NW) 06:44:15 437.095 MHz 1200 baud AX-25 AFSK
Hamsat 26 Oct 06:46:05 06:49:55 34° 97° (E) 06:53:46 145.90 MHz
RS-15 26 Oct 06:48:31 06:59:13 49° 46° (NE) 07:10:17 29.354 - 29.394 USB, Beacon 29.352 USB
OPAL 26 Oct 07:12:48 07:15:38 15° 266° (W) 07:18:28 ?
STRAND 1 26 Oct 07:17:35 07:22:40 69° 74° (ENE) 07:27:48 ?
AO-7 26 Oct 07:21:19 07:28:36 36° 301° (WNW) 07:35:54 29.400 - 29.500 MHz
JAS-2 26 Oct 07:26:23 07:34:11 73° 287° (WNW) 07:41:54 435.800 - 435.900 CW/SSB, 435.910 FM
Saudisat 1A 26 Oct 07:33:55 07:37:59 39° 116° (ESE) 07:42:06 436.775 MHz
PANSAT 26 Oct 07:39:41 07:40:22 10° 167° (SSE) 07:41:03 not established
Hamsat 26 Oct 08:22:37 08:25:38 20° 293° (WNW) 08:28:40 145.90 MHz
SO-67 26 Oct 08:44:19 08:47:45 68° 284° (WNW) 08:51:10 435.3500 MHz FM
HO-68 26 Oct 08:48:39 08:50:46 11° 87° (E) 08:52:53 435.675 MHz FM
STRAND 1 26 Oct 08:59:54 09:02:20 13° 270° (W) 09:04:47 ?
RS-15 26 Oct 09:01:01 09:11:44 54° 248° (WSW) 09:22:55 29.354 - 29.394 USB, Beacon 29.352 USB
JAS-2 26 Oct 09:13:37 09:17:54 16° 305° (NW) 09:22:14 435.800 - 435.900 CW/SSB, 435.910 FM
Saudisat 1A 26 Oct 09:14:08 09:17:41 24° 313° (NW) 09:21:15 436.775 MHz
PANSAT 26 Oct 09:17:40 09:19:46 14° 180° (S) 09:21:51 not established
UKube-1 26 Oct 10:02:43 10:04:43 13° 92° (E) 10:06:44 145.840 MHz, 145.915 MHz
MaSat-1 26 Oct 10:19:53 10:21:58 23° 251° (WSW) 10:23:57 437.345 MHz
HO-68 26 Oct 10:32:20 10:39:33 75° 105° (ESE) 10:46:44 435.675 MHz FM
Oscar 11 26 Oct 10:41:26 10:45:21 33° 97° (E) 10:49:15 145.825 FM, Beacon 2401.500 USB
FUNcube-1 26 Oct 10:44:06 10:46:22 14° 91° (E) 10:48:36 145.950 - 145.970 MHz USB
KITSAT 1 26 Oct 10:46:18 10:48:31 11° 98° (E) 10:50:45 435.175 FM
PANSAT 26 Oct 10:58:43 10:59:10 10° 193° (SSW) 10:59:36 not established
ZACube-1 26 Oct 11:34:25 11:38:36 55° 100° (E) 11:42:40 437.345 MHz
UKube-1 26 Oct 11:36:57 11:41:14 54° 287° (WNW) 11:45:28 145.840 MHz, 145.915 MHz
ISS 26 Oct 11:55:14 11:57:25 17° 131° (SE) 11:59:37 145.800 FM
Sapphire 26 Oct 11:58:48 12:01:59 15° 42° (NE) 12:05:09 437.095 MHz 1200 baud AX-25 AFSK
Oscar 11 26 Oct 12:18:06 12:21:19 21° 293° (WNW) 12:24:31 145.825 FM, Beacon 2401.500 USB
FUNcube-1 26 Oct 12:18:57 12:23:00 45° 287° (WNW) 12:26:58 145.950 - 145.970 MHz USB
PCSat 26 Oct 12:20:30 12:24:48 23° 48° (NE) 12:29:03 145.825 MHz
HO-68 26 Oct 12:21:19 12:26:31 22° 303° (WNW) 12:31:42 435.675 MHz FM
KITSAT 1 26 Oct 12:34:26 12:42:25 69° 115° (ESE) 12:50:26 435.175 FM
Oscar 16 26 Oct 12:47:56 12:50:48 15° 61° (ENE) 12:53:40 437.025 USB, Beacon 2401.1428
Uribyol 2 26 Oct 13:12:05 13:13:15 11° 58° (ENE) 13:14:26 436.500 FM
ZACube-1 26 Oct 13:12:35 13:14:30 13° 297° (WNW) 13:16:24 437.345 MHz
ITAMSAT 1 26 Oct 13:17:55 13:19:37 12° 58° (ENE) 13:21:20 435.822 SSB
SO-50 26 Oct 13:27:09 13:31:38 87° 300° (WNW) 13:36:16 436.795 FM
ISS 26 Oct 13:30:33 13:33:49 53° 327° (NNW) 13:37:06 145.800 FM
Oscar 19 26 Oct 13:38:44 13:43:34 43° 70° (ENE) 13:48:25 437.125 CW, 437.150 USB
Sapphire 26 Oct 13:40:45 13:46:13 87° 62° (ENE) 13:51:38 437.095 MHz 1200 baud AX-25 AFSK
Gurwin Techsat 1B 26 Oct 13:46:35 13:48:12 11° 58° (ENE) 13:49:48 435.225 FM
TMSAT-1 26 Oct 13:57:42 13:58:30 10° 58° (ENE) 13:59:18 436.925 FM
AO-27 26 Oct 14:00:42 14:05:09 30° 67° (ENE) 14:09:38 436.795 MHz FM
PCSat 26 Oct 14:03:15 14:08:33 56° 246° (WSW) 14:13:49 145.825 MHz
AO-Echo 26 Oct 14:07:52 14:12:27 40° 70° (ENE) 14:17:11 ?
JAS-1B 26 Oct 14:12:20 14:18:16 74° 74° (ENE) 14:23:55 435.800 - 435.900 CW/SSB
Oscar 16 26 Oct 14:24:25 14:29:34 69° 258° (WSW) 14:34:43 437.025 USB, Beacon 2401.1428
KITSAT 1 26 Oct 14:31:28 14:38:26 31° 316° (NW) 14:45:27 435.175 FM
AO-7 26 Oct 14:38:46 14:43:04 15° 48° (NE) 14:47:23 29.400 - 29.500 MHz
UOSAT-12 26 Oct 14:42:38 14:47:06 51° 117° (ESE) 14:51:40 437.025 FM, 437.400 FM
Uribyol 2 26 Oct 14:46:39 14:51:52 82° 75° (ENE) 14:57:07 436.500 FM
ITAMSAT 1 26 Oct 14:53:05 14:58:18 88° 76° (ENE) 15:03:34 435.822 SSB
ISS 26 Oct 15:09:04 15:11:06 15° 346° (NNW) 15:13:08 145.800 FM
SO-50 26 Oct 15:10:35 15:12:55 14° 322° (NW) 15:15:17 436.795 FM
Oscar 19 26 Oct 15:19:07 15:23:04 22° 266° (W) 15:27:01 437.125 CW, 437.150 USB
Gurwin Techsat 1B 26 Oct 15:22:00 15:27:19 85° 75° (ENE) 15:32:40 435.225 FM
Sapphire 26 Oct 15:27:02 15:28:49 12° 258° (WSW) 15:30:35 437.095 MHz 1200 baud AX-25 AFSK
TMSAT-1 26 Oct 15:32:13 15:37:30 79° 75° (ENE) 15:42:50 436.925 FM
AO-27 26 Oct 15:39:52 15:44:33 34° 263° (W) 15:49:16 436.795 MHz FM
AO-Echo 26 Oct 15:47:36 15:51:22 22° 267° (W) 15:55:15 ?
Uosat F 26 Oct 15:55:27 15:59:00 20° 64° (ENE) 16:02:34 435.120 FM
Saudisat 1A 26 Oct 16:01:02 16:04:55 29° 49° (NE) 16:08:47 436.775 MHz
JAS-1B 26 Oct 16:07:09 16:09:34 13° 270° (W) 16:11:57 435.800 - 435.900 CW/SSB
UOSAT-12 26 Oct 16:23:55 16:27:32 22° 315° (NW) 16:31:12 437.025 FM, 437.400 FM
AO-7 26 Oct 16:26:10 16:34:20 68° 68° (ENE) 16:42:33 29.400 - 29.500 MHz
Uribyol 2 26 Oct 16:30:23 16:31:56 11° 271° (W) 16:33:29 436.500 FM
KITSAT 1 26 Oct 16:34:55 16:37:03 11° 344° (NNW) 16:39:10 435.175 FM
ITAMSAT 1 26 Oct 16:37:55 16:38:27 10° 272° (W) 16:38:58 435.822 SSB
ISS 26 Oct 16:47:26 16:48:53 12° 6° (N) 16:50:21 145.800 FM
Gurwin Techsat 1B 26 Oct 17:06:34 17:07:55 11° 272° (W) 17:09:16 435.225 FM
TMSAT-1 26 Oct 17:15:59 17:18:00 12° 271° (W) 17:20:02 436.925 FM
Oscar 10/S400 26 Oct 17:23:13 17:42:16 60° 172° (S) 19:12:20 145.825 - 145.975 CW/USB, Beacon 145.810 USB
Uosat F 26 Oct 17:32:32 17:37:23 49° 260° (W) 17:42:18 435.120 FM
JAS-2 26 Oct 17:37:52 17:43:36 48° 68° (ENE) 17:50:06 435.800 - 435.900 CW/SSB, 435.910 FM
Hamsat 26 Oct 17:39:16 17:42:36 23° 69° (ENE) 17:45:56 145.90 MHz
Saudisat 1A 26 Oct 17:40:34 17:44:27 30° 246° (WSW) 17:48:18 436.775 MHz
OPAL 26 Oct 17:43:09 17:46:14 16° 94° (E) 17:49:17 ?
AO-7 26 Oct 18:21:10 18:27:41 26° 266° (W) 18:34:16 29.400 - 29.500 MHz
ISS 26 Oct 18:23:31 18:26:27 27° 26° (NNE) 18:29:22 145.800 FM
KITSAT 1 26 Oct 18:34:44 18:37:08 11° 17° (NNE) 18:39:31 435.175 FM
Hamsat 26 Oct 19:14:49 19:18:26 28° 264° (W) 19:22:02 145.90 MHz
SO-67 26 Oct 19:16:21 19:19:26 31° 73° (ENE) 19:22:31 435.3500 MHz FM
OPAL 26 Oct 19:20:36 19:25:26 54° 290° (WNW) 19:30:14 ?
JAS-2 26 Oct 19:24:04 19:29:00 26° 269° (W) 19:34:28 435.800 - 435.900 CW/SSB, 435.910 FM
STRAND 1 26 Oct 19:29:27 19:33:37 24° 95° (E) 19:37:45 ?
ISS 26 Oct 20:00:03 20:03:13 40° 223° (SW) 20:06:22 145.800 FM
SO-50 26 Oct 20:20:27 20:22:35 13° 37° (NE) 20:24:43 436.795 FM
KITSAT 1 26 Oct 20:28:32 20:35:38 32° 44° (NE) 20:42:42 435.175 FM
SO-67 26 Oct 20:50:50 20:52:30 13° 268° (W) 20:54:10 435.3500 MHz FM
UKube-1 26 Oct 20:58:40 21:00:12 12° 62° (ENE) 21:01:44 145.840 MHz, 145.915 MHz
HO-68 26 Oct 20:59:58 21:06:51 53° 68° (ENE) 21:13:47 435.675 MHz FM
STRAND 1 26 Oct 21:08:07 21:12:53 39° 291° (WNW) 21:17:37 ?
RS-15 26 Oct 21:13:59 21:22:35 27° 103° (ESE) 21:31:04 29.354 - 29.394 USB, Beacon 29.352 USB
